User: anonymous   Login
Location: Keewatin
(47.4004°N, 93.0827°W)
Time: 07:21:10
(UTC+00:00)
Language:

Envisat - Orbit

View from above orbital plane
View from above orbital plane
View from above satellite
View from above satellite

Ground track
Ground track

The orbit data is extracted from the following two-line orbital elements,

1 27386U 02009A   20028.16720376  .00000002  00000-0  14042-4 0  9998
2 27386  98.1399  42.6230 0001166  89.1226 312.8057 14.37969758938315
Epoch (UTC): 28 January 2020 04:00:46
Eccentricity: 0.0001166
inclination: 98.1399°
perigee height: 764 km
apogee height: 766 km
right ascension of ascending node: 42.6230°
argument of perigee: 89.1226°
revolutions per day: 14.37969758
mean anomaly at epoch: 312.8057°
orbit number at epoch: 93831

The dashed part of the orbit path shows where the satellite is in the earth's shadow,  

DLR